GFSNGP_925_temp_009.txt.gz
Temp
35 36 37 37 37 37 36 37 37 38 38 39 41 41 41 41 41 41 41 40 39 39 39 37 37 35 35 35 35 34 33 32 31 29 28 28 27 26 25 24 23 22 22 21
34 36 36 36 37 37 37 37 37 38 38 41 41 41 41 41 41 40 41 41 39 38 38 37 36 35 34 34 35 34 33 33 32 30 28 28 27 26 24 23 23 22 22 21
32 35 35 34 36 36 37 38 37 36 38 39 40 40 41 41 41 40 41 42 39 38 37 37 35 34 34 33 34 33 33 32 32 30 28 27 26 25 23 22 22 22 21 20
32 33 31 35 37 37 37 37 38 38 38 39 39 40 41 41 41 41 41 41 41 39 37 36 35 34 34 32 32 32 31 31 30 29 28 26 25 23 22 22 21 21 20 21
31 32 29 31 33 34 34 36 38 38 38 39 39 40 39 41 41 41 41 42 40 38 37 35 35 34 33 32 31 30 30 29 29 28 27 26 24 23 22 21 21 21 20 21
31 31 31 35 32 34 34 33 37 37 38 38 39 38 40 41 40 39 40 41 39 37 36 34 34 33 32 31 30 30 29 28 28 27 26 25 24 22 22 22 21 21 21 21
30 31 33 33 33 33 31 32 32 33 34 37 38 39 39 39 39 38 39 38 37 36 34 33 33 32 31 31 30 29 29 28 27 26 25 25 23 22 22 21 21 20 21 21
31 30 30 31 32 32 30 31 33 33 34 35 38 39 35 35 36 36 37 36 35 34 32 32 31 31 30 30 29 29 28 27 26 25 25 23 22 22 21 20 20 21 21 21
32 32 29 29 28 29 31 32 32 33 35 35 36 35 34 34 34 34 33 33 33 32 31 31 30 30 30 29 28 27 26 26 24 23 22 22 22 20 20 20 20 21 21 22
30 28 27 28 29 30 30 31 32 33 33 34 34 34 33 33 33 33 33 32 31 31 30 29 29 29 27 26 26 25 23 22 21 21 21 20 20 20 20 20 21 22 22 20
28 27 27 26 26 27 28 30 30 32 29 32 32 31 32 31 31 31 31 31 30 29 28 27 27 26 25 25 25 24 24 22 21 21 21 19 19 19 20 19 21 22 23 21
26 27 25 24 25 26 26 25 27 27 25 27 26 25 28 29 29 29 29 28 28 28 27 26 25 25 24 24 24 24 23 23 22 22 21 20 19 17 18 19 19 21 21 21
22 25 23 22 23 22 25 26 26 26 27 27 27 27 27 26 25 24 28 28 28 27 26 25 25 24 22 23 23 23 25 25 25 25 25 24 24 23 21 17 18 19 19 18
22 22 20 21 17 20 22 24 23 25 25 26 26 26 26 27 26 25 25 25 26 25 25 25 25 24 23 22 23 24 25 24 25 26 26 26 25 24 24 22 21 18 15 16
19 20 19 18 16 14 16 17 23 23 24 24 25 25 25 25 24 25 25 26 26 26 26 25 24 24 24 23 23 24 24 25 26 26 26 25 25 24 25 25 24 20 14 13
16 16 16 16 15 14 15 16 19 22 23 22 22 22 23 24 24 24 24 25 26 27 26 26 25 24 24 24 24 24 24 24 25 25 24 24 24 24 25 25 24 20 19 18
14 14 14 13 13 15 14 15 17 18 22 23 22 22 22 23 23 23 23 23 23 24 24 24 23 23 23 23 24 25 25 24 24 25 25 25 25 25 25 25 25 24 22 20
13 14 14 14 14 14 16 18 18 20 20 21 22 22 22 22 21 22 23 23 22 23 23 22 21 21 22 23 24 25 25 24 24 25 25 24 24 24 24 24 24 24 19 18
17 17 18 19 20 18 17 18 20 20 20 20 21 22 22 22 22 21 22 22 23 22 19 19 20 21 21 22 23 25 24 25 24 24 23 22 23 24 24 23 23 21 18 17
17 18 20 20 20 20 20 20 20 20 20 21 21 22 22 22 22 22 21 21 20 20 19 19 19 20 20 20 21 24 23 24 23 23 22 23 24 23 22 21 22 22 21 19
20 19 21 21 21 21 20 20 19 19 20 20 20 20 20 21 21 21 20 21 19 19 19 19 21 21 21 21 21 23 23 22 22 22 23 22 23 23 22 22 21 20 19 18
20 20 20 21 21 21 20 20 20 20 19 19 20 20 20 21 21 21 20 20 20 18 20 21 20 20 21 20 22 23 22 22 22 22 22 22 22 22 22 21 20 19 20 19
20 20 20 20 21 21 20 20 20 19 19 20 19 20 21 21 21 18 18 19 20 19 18 18 19 19 19 19 22 22 22 21 21 21 21 21 21 21 21 21 21 21 21 20
20 20 20 20 20 20 20 20 20 20 20 19 20 20 20 21 20 21 19 18 18 18 18 18 18 18 18 20 21 22 21 21 21 21 21 19 19 20 20 20 20 20 19 19
20 20 20 20 21 21 21 21 21 21 21 20 20 20 20 21 21 21 20 19 18 18 18 17 17 17 18 20 21 20 20 21 21 21 21 20 20 20 20 19 19 19 19 19
20 20 20 19 20 20 20 21 21 21 21 21 21 21 21 21 20 21 20 20 20 20 21 19 18 17 19 20 20 21 20 20 20 20 20 20 19 19 19 19 19 19 19 18
19 18 20 20 19 19 19 19 20 20 20 19 19 20 20 20 20 20 20 20 20 21 21 21 20 19 20 20 20 20 20 20 20 20 20 20 19 19 19 19 19 18 18 18

GFSNGP_925_temp_015.txt.gz
Temp
32 34 33 34 34 35 33 33 30 32 32 32 33 33 32 33 34 34 34 33 31 34 34 33 32 31 31 30 30 28 27 26 26 25 25 25 25 24 25 25 25 26 25 24
30 33 34 34 35 35 35 35 34 33 33 32 33 33 34 33 35 35 36 34 32 32 34 32 32 31 31 30 30 30 27 27 26 26 25 25 25 25 24 25 25 25 25 24
28 31 31 30 33 34 34 35 34 32 34 33 32 33 33 33 34 34 35 33 32 31 33 33 32 31 31 30 30 30 29 27 27 26 26 25 25 25 25 24 24 25 24 24
26 28 27 32 33 35 34 34 34 34 33 32 31 31 31 34 37 36 35 34 32 33 29 33 33 32 31 31 30 30 29 28 27 27 26 26 25 25 25 25 25 25 24 23
25 27 29 31 32 34 32 32 33 34 34 34 33 33 32 32 32 33 35 35 34 32 32 32 33 32 31 30 30 29 28 28 28 27 26 26 25 25 25 25 25 24 24 24
25 26 27 30 33 33 34 30 32 30 30 31 32 30 29 30 33 32 31 34 35 36 34 33 32 32 31 30 30 29 30 28 28 28 27 26 26 25 25 25 25 24 23 22
26 27 28 31 32 31 29 28 31 30 31 31 30 28 29 31 32 33 32 30 33 34 31 32 32 32 31 31 30 30 30 29 28 28 26 26 25 26 25 24 24 22 22 21
26 26 27 28 30 29 27 30 32 32 32 32 31 30 31 31 32 33 34 32 30 28 28 31 31 31 29 30 30 30 29 29 27 26 25 25 26 24 23 23 22 21 21 21
24 24 24 22 21 21 25 28 30 28 27 30 29 28 29 30 29 31 28 28 28 29 27 29 31 30 27 27 30 29 28 26 26 25 24 24 22 22 22 22 21 20 20 20
22 24 26 24 22 23 22 22 24 24 23 23 22 23 24 27 27 25 26 27 27 26 25 24 26 27 27 27 27 26 24 23 24 23 23 23 22 22 21 20 20 20 21 20
20 18 18 24 21 23 23 22 22 22 22 21 21 20 20 20 22 24 24 25 26 25 24 24 25 25 25 25 24 23 22 21 21 21 21 21 21 20 21 21 22 22 21 21
18 16 16 16 19 20 22 22 21 21 20 19 18 17 18 17 18 19 20 23 24 24 24 23 23 23 22 23 23 21 20 20 20 19 19 19 19 18 20 21 21 21 22 21
17 16 15 16 18 22 22 22 22 21 20 19 17 17 17 17 16 17 17 20 23 23 23 23 24 23 22 22 23 21 20 20 20 19 19 19 19 19 16 17 19 20 21 20
16 16 16 14 14 17 19 21 22 22 22 19 18 17 16 17 17 16 16 16 25 22 22 22 22 22 23 23 22 21 21 20 20 20 20 20 20 19 19 18 18 18 19 20
15 16 15 14 14 15 17 19 18 17 19 20 21 18 17 17 16 16 18 21 23 23 22 22 22 22 23 23 23 22 22 21 21 21 20 20 19 19 19 19 18 18 18 17
14 14 16 15 15 15 16 16 16 16 17 17 17 19 20 20 20 21 21 20 20 19 22 22 22 23 23 23 23 23 23 23 23 23 22 21 21 21 19 18 18 18 16 16
14 13 13 13 14 14 14 15 16 15 15 16 16 18 20 19 19 20 21 20 20 20 22 23 22 23 23 23 24 24 24 23 24 23 21 22 24 23 20 19 18 18 17 18
13 13 13 13 13 14 15 14 15 15 15 16 18 18 18 18 18 19 19 20 20 20 20 20 20 21 22 22 22 23 24 24 24 24 24 23 24 25 22 20 18 18 18 17
14 15 16 16 16 16 15 16 16 16 15 17 17 16 18 18 20 20 19 19 19 18 19 21 21 21 21 21 22 23 23 24 23 24 24 23 22 22 22 20 20 19 20 18
17 18 18 18 19 18 17 17 17 18 18 18 18 17 16 18 19 20 19 18 18 18 19 19 20 21 21 21 22 22 23 23 22 22 22 21 21 20 20 21 21 21 20 19
18 17 17 18 17 17 17 18 18 17 19 19 18 18 18 18 19 19 18 16 18 19 19 19 20 20 20 20 21 21 22 21 20 20 20 21 20 20 21 20 20 20 19 19
18 18 18 18 17 17 18 18 19 19 19 19 19 19 19 18 18 18 18 18 19 19 19 19 19 19 20 20 21 22 21 21 21 20 20 21 21 21 21 20 20 19 19 19
16 17 18 18 17 18 19 19 19 19 19 19 19 19 19 19 19 17 16 18 19 19 19 19 19 20 20 21 21 21 22 22 21 21 21 21 21 21 21 21 21 20 20 19
17 17 18 18 19 18 16 18 19 19 20 20 20 20 20 19 19 19 19 19 19 19 19 19 19 20 20 20 20 20 21 21 21 21 21 21 21 21 21 20 20 20 20 20
18 17 17 17 16 16 17 18 18 18 19 20 19 19 19 20 19 20 20 20 19 19 19 19 19 19 19 19 19 20 20 21 21 21 21 21 21 21 20 20 20 20 20 20
17 17 17 16 17 17 17 17 17 17 17 16 18 18 18 18 17 17 18 19 19 19 19 19 18 17 17 16 16 16 16 17 17 19 19 19 19 20 20 20 20 20 20 19
17 17 16 16 16 17 17 17 16 16 17 16 16 17 16 16 16 16 16 16 17 18 18 17 16 15 15 14 14 14 14 14 14 15 13 15 15 14 17 16 16 16 15 16

GFSNGP_925_temp_021.txt.gz
Temp
19 20 23 26 27 29 27 29 29 30 27 29 27 27 28 28 28 28 29 30 28 31 28 28 29 29 28 27 26 26 25 24 24 24 24 23 23 24 24 24 23 24 24 24
18 22 24 25 27 28 30 30 29 29 27 27 29 27 28 28 28 27 28 31 31 32 31 30 30 29 28 27 26 26 25 25 24 24 24 23 23 23 23 23 23 23 23 24
15 19 20 24 27 29 30 30 30 29 29 28 28 27 27 27 26 28 28 30 28 32 33 32 31 30 29 27 27 26 25 25 25 24 24 23 23 22 22 22 22 23 23 23
14 17 21 27 30 31 30 29 28 29 28 27 29 30 28 26 27 27 28 28 28 31 29 31 31 30 30 28 27 26 25 25 25 24 24 23 23 22 22 22 22 22 22 23
16 16 20 26 28 30 28 28 28 29 28 28 27 29 28 26 26 28 27 28 27 29 32 32 31 30 29 28 27 26 25 25 25 24 24 23 23 22 22 22 21 21 22 23
15 18 20 25 22 22 28 29 27 27 28 28 25 26 29 28 26 26 26 26 26 27 29 30 31 31 29 28 27 26 26 25 25 24 24 23 23 23 22 22 22 21 22 23
17 18 19 19 19 21 26 29 26 26 26 25 27 26 27 27 28 28 27 26 28 27 26 29 31 30 28 28 27 27 26 26 25 25 24 24 23 23 22 22 22 22 22 22
17 18 18 19 19 20 19 19 24 25 25 24 24 23 23 22 22 21 21 21 22 24 24 26 28 29 28 27 28 28 27 26 26 25 24 24 23 22 22 22 22 22 21 21
19 19 18 18 17 18 18 18 18 20 20 22 21 20 19 19 19 18 18 19 20 20 21 24 28 29 27 28 28 28 27 27 25 25 24 24 22 22 22 22 22 21 20 20
18 19 18 18 17 18 18 18 18 18 18 18 18 18 17 18 18 18 17 18 18 18 19 17 18 21 25 28 28 27 27 26 26 24 24 23 23 22 22 22 21 20 20 19
18 16 18 18 17 16 18 17 18 18 17 17 17 16 16 15 16 16 16 16 18 18 18 18 20 20 20 22 25 26 26 26 25 24 24 22 22 22 22 21 20 20 19 19
18 16 16 15 15 15 16 17 16 17 16 16 16 16 15 15 15 15 15 16 16 18 19 20 20 21 24 23 22 25 25 23 23 22 18 17 17 17 19 19 19 19 20 20
15 15 15 15 14 16 16 16 17 17 16 16 16 15 15 15 15 15 18 18 17 17 18 17 17 18 19 22 21 22 23 20 19 18 17 18 18 18 17 19 17 19 20 21
15 15 15 15 15 15 16 17 17 17 17 17 16 16 15 16 16 17 17 17 18 17 18 18 19 19 18 18 19 18 18 18 18 18 18 18 18 17 16 16 16 15 20 21
14 15 14 14 14 15 15 16 16 17 17 17 17 16 16 16 17 17 17 17 17 17 17 17 17 17 18 18 18 18 19 18 18 18 18 16 16 16 16 16 15 15 18 19
14 14 14 14 14 14 14 14 15 15 16 17 17 17 17 17 17 17 16 16 17 17 16 17 17 17 18 15 15 16 16 17 17 16 16 16 16 16 16 16 15 16 16 16
14 14 14 14 14 13 14 14 14 13 15 16 15 16 16 16 16 15 16 16 16 16 16 17 17 18 19 18 17 16 17 17 17 17 16 16 16 17 16 15 15 15 17 18
12 12 13 14 14 14 14 14 14 14 14 15 16 17 16 14 13 13 15 16 16 16 17 17 18 20 21 21 20 19 18 18 18 18 17 17 16 17 17 16 16 16 16 17
13 13 14 14 14 14 15 15 15 16 16 16 15 14 14 15 15 15 15 15 15 15 16 19 19 20 20 21 22 21 20 20 19 18 19 18 18 18 17 17 16 15 16 16
13 13 14 14 14 15 15 15 16 15 16 16 16 15 15 15 16 15 15 13 14 15 17 18 19 19 20 20 21 20 20 19 18 18 18 17 17 18 17 17 16 16 16 17
15 15 15 15 15 15 15 15 15 14 15 16 15 14 14 15 16 16 14 14 16 17 18 18 19 19 20 20 20 21 21 20 19 19 18 18 18 17 16 16 16 17 17 17
15 15 15 15 15 15 15 15 15 15 14 15 16 15 15 14 15 15 15 14 16 17 17 18 19 19 20 20 18 19 19 19 19 20 20 20 19 18 18 18 17 17 18 18
14 14 14 14 14 14 14 14 15 15 14 14 14 13 13 13 13 12 12 14 17 17 17 16 18 19 19 18 18 18 17 18 18 19 19 19 19 19 20 20 19 18 18 18
13 13 13 14 14 13 12 12 13 13 13 13 13 13 12 13 13 13 12 14 15 15 15 16 17 17 17 15 16 15 16 17 17 18 18 19 19 19 19 19 19 19 19 18
12 12 11 12 11 9 11 12 12 11 11 10 10 11 11 11 12 11 11 12 13 13 13 14 14 14 14 14 14 14 14 13 13 15 15 15 16 17 16 16 17 17 17 17
10 10 10 10 9 10 11 11 9 9 9 8 8 9 9 9 10 10 10 11 10 10 9 10 11 12 12 13 13 12 12 13 14 12 13 11 11 10 13 14 14 14 14 14
9 8 9 9 9 9 9 8 8 7 8 8 8 8 8 8 8 8 8 8 8 8 8 8 8 10 11 11 11 12 12 12 11 12 12 12 9 9 8 9 10 9 10 9

GFSNGP_925_temp_024.txt.gz
Temp
17 18 19 20 21 23 23 27 26 28 28 27 26 26 27 26 26 27 27 25 24 26 27 26 27 28 27 26 26 26 25 24 24 23 23 23 22 23 24 24 25 25 25 24
15 19 20 19 21 23 24 25 25 27 26 26 26 25 26 26 26 27 26 26 25 26 26 25 27 27 27 26 26 26 25 24 24 24 23 23 23 23 23 23 23 23 23 23
15 16 18 21 24 24 25 25 26 26 27 28 26 25 26 28 26 25 26 26 25 26 27 27 27 27 27 27 26 25 25 24 24 24 23 23 22 22 23 22 22 23 22 22
13 15 18 23 22 24 26 27 26 28 26 27 28 28 27 27 29 26 26 25 25 26 28 29 29 29 28 27 26 25 25 24 24 23 23 23 22 22 22 22 22 21 22 22
14 14 19 21 22 20 19 21 27 27 27 26 28 28 26 25 24 26 25 25 25 26 28 29 31 31 29 27 26 25 25 24 24 23 23 23 22 22 22 22 21 21 21 21
12 15 17 22 19 20 19 20 25 26 27 28 24 25 27 28 25 24 24 25 24 26 27 28 29 30 28 27 25 25 25 25 24 24 23 23 23 23 22 22 21 21 20 22
13 14 17 20 18 20 23 23 19 19 21 27 26 29 25 24 23 24 23 25 26 26 25 25 28 28 26 26 25 26 25 25 24 24 23 23 23 23 22 22 21 21 21 20
12 14 16 18 20 21 19 18 19 19 19 22 22 20 20 19 19 20 20 20 21 20 19 22 25 27 25 24 27 26 25 25 24 24 23 23 23 22 22 22 22 21 21 21
14 15 15 17 17 17 18 18 18 18 18 20 19 19 18 18 18 18 18 19 20 20 18 19 22 24 23 21 26 27 26 25 24 24 24 24 23 22 22 22 22 22 21 21
13 17 17 17 17 17 17 17 18 18 18 18 18 18 17 17 17 17 17 17 18 19 18 18 20 21 21 23 25 26 26 25 25 24 24 23 22 22 22 22 22 22 22 21
14 15 17 17 16 15 17 17 17 17 16 17 17 16 17 16 16 16 16 16 17 17 17 17 19 21 22 23 23 23 24 25 25 24 23 23 22 22 22 22 22 23 22 21
14 16 16 16 15 15 16 16 16 16 17 16 16 16 16 16 17 18 17 17 17 17 17 16 17 18 19 20 22 22 22 23 24 23 22 19 17 17 21 21 22 20 19 19
14 14 14 14 14 14 15 16 16 16 16 16 16 16 16 16 17 16 17 17 16 16 17 18 19 19 20 20 19 20 22 22 21 21 18 17 18 18 16 17 19 19 18 18
13 14 14 14 14 14 14 15 16 16 16 16 16 16 17 17 17 17 17 17 17 17 17 17 17 18 18 19 18 18 20 20 19 19 18 19 18 18 17 16 15 14 17 20
14 14 14 14 14 13 13 14 15 15 16 17 17 16 16 16 16 16 17 17 16 16 16 17 17 17 17 17 16 16 17 18 18 19 19 17 16 16 17 16 15 14 13 15
13 14 14 14 14 14 13 13 14 14 15 15 15 16 16 16 16 15 15 15 16 15 15 15 16 16 17 16 16 19 17 19 18 17 16 17 16 16 16 16 14 13 14 11
14 13 14 14 14 14 13 13 14 14 15 15 15 15 15 15 15 15 15 16 15 15 15 15 15 17 17 17 17 15 17 17 17 17 15 15 15 16 15 15 14 15 15 13
13 13 13 13 13 13 13 14 15 15 15 15 15 15 15 14 13 14 14 15 16 16 16 18 19 18 18 17 16 16 16 17 17 17 15 15 15 15 16 15 15 14 13 13
13 13 13 13 14 14 15 15 15 15 15 15 15 14 14 14 13 13 13 13 13 14 15 18 20 20 20 19 18 17 17 17 16 16 16 15 15 14 15 14 14 14 14 15
12 12 14 14 14 14 14 14 14 14 14 15 15 14 14 14 14 14 14 12 12 13 16 18 18 19 20 21 21 19 18 17 16 16 16 16 15 16 16 16 15 14 14 13
11 12 13 13 14 14 14 13 14 14 14 14 14 13 12 13 13 14 14 14 13 16 16 17 17 17 17 19 21 20 19 18 17 17 18 17 16 16 16 16 15 16 16 16
11 13 13 12 12 13 14 13 12 12 12 12 12 12 11 11 12 13 11 10 12 15 13 12 13 16 17 17 17 17 17 17 18 18 16 15 16 15 15 14 14 14 14 15
10 11 12 12 12 12 12 12 11 11 11 11 11 10 11 10 10 11 10 10 10 12 12 11 12 14 15 15 14 14 14 14 15 16 17 16 16 16 16 15 15 16 15 15
10 10 10 11 11 11 11 11 10 9 9 9 9 10 10 11 9 9 9 9 10 11 10 10 12 12 12 11 11 11 12 12 12 13 13 14 14 14 14 15 15 16 16 16
9 9 8 9 8 9 9 9 9 9 8 8 8 8 8 8 8 8 8 8 9 9 9 10 11 12 11 10 10 9 10 11 11 13 12 11 10 10 10 9 10 10 11 13
7 7 8 7 7 7 7 8 7 7 8 7 7 7 7 7 7 7 7 8 7 8 7 8 9 9 9 10 9 9 8 8 9 9 10 11 11 9 10 9 8 9 8 8
7 7 7 7 7 7 6 6 6 5 6 6 6 6 6 6 7 7 7 6 7 7 7 8 8 8 8 8 8 8 8 9 9 9 9 9 10 9 9 10 9 8 8 8

GFSNGP_925_temp_030.txt.gz
Temp
29 26 27 31 33 33 33 33 33 35 35 36 36 36 36 37 37 37 37 37 36 36 36 36 35 34 32 32 32 32 31 30 29 27 27 26 26 25 25 25 25 25 25 25
24 26 26 27 28 30 32 33 33 34 34 37 37 35 35 35 35 35 36 37 38 37 36 35 34 33 33 31 31 31 31 30 29 28 27 26 26 25 25 25 25 25 25 25
25 26 26 25 27 28 29 31 31 31 32 34 34 34 34 35 35 36 36 37 37 37 38 36 35 33 32 31 31 30 30 29 28 28 26 26 26 25 25 25 25 25 25 25
24 25 23 28 31 30 29 30 31 31 32 33 33 34 34 35 35 36 36 37 37 39 39 37 36 37 34 33 30 30 29 29 28 27 27 26 26 25 25 25 25 25 25 25
22 23 26 28 28 28 28 29 31 31 32 33 33 34 34 35 36 36 37 37 38 38 37 37 36 35 34 32 31 29 29 28 28 27 27 26 26 25 25 25 25 25 25 25
22 21 23 27 30 29 29 27 31 30 30 31 31 32 34 36 37 37 37 37 37 37 36 36 34 34 33 33 31 29 29 28 28 27 27 26 26 26 25 25 25 26 25 25
20 20 24 27 27 27 25 27 29 29 29 29 29 30 32 32 32 33 34 35 34 34 34 34 32 33 33 32 32 30 29 29 28 27 27 26 26 25 25 25 26 25 26 26
19 20 20 25 26 25 25 25 26 27 27 27 27 27 27 28 29 30 33 34 33 31 32 32 31 31 32 31 31 30 30 29 28 27 27 27 26 26 25 25 25 25 24 25
20 21 22 24 24 25 23 23 24 25 26 26 26 26 27 28 29 31 32 32 31 32 31 29 29 29 30 29 29 29 29 29 28 27 27 27 26 25 25 25 26 25 26 26
18 20 21 22 22 22 23 23 23 24 25 25 25 25 26 29 29 30 30 29 30 30 30 28 28 28 29 27 27 28 28 28 27 27 27 27 27 26 26 27 26 27 28 28
17 19 20 20 21 22 22 22 23 23 24 25 24 25 27 28 27 28 27 27 28 28 27 26 25 25 25 25 26 27 28 28 28 28 27 27 27 28 28 28 29 27 28 28
17 19 19 19 20 21 21 21 23 23 23 24 22 22 23 26 26 26 25 25 25 25 25 24 24 24 23 23 23 26 27 29 29 30 30 28 29 27 27 27 27 27 27 27
17 18 18 19 19 19 19 20 22 23 24 22 19 19 21 21 20 19 23 24 24 24 24 24 23 22 19 19 23 23 24 24 27 27 29 30 30 29 30 24 25 25 25 25
14 15 14 16 15 17 19 20 21 22 22 19 19 19 19 20 19 20 22 23 23 23 23 23 21 20 20 21 22 22 21 21 24 24 25 26 25 25 26 24 23 22 21 21
10 11 13 14 16 17 19 19 20 19 18 18 18 18 19 20 21 21 21 22 22 22 22 22 21 20 21 22 22 22 23 23 23 22 20 18 18 17 17 17 16 15 14 15
10 10 12 14 15 16 17 19 16 16 17 17 19 21 22 22 22 21 21 20 21 21 20 20 21 21 21 21 23 23 21 20 21 22 22 21 20 17 17 16 16 16 15 14
13 13 14 14 16 17 17 15 16 16 17 17 17 19 19 19 20 20 21 20 19 19 19 18 19 20 21 22 23 23 23 23 21 23 22 21 21 20 20 20 19 16 14 14
15 15 15 13 15 15 14 15 15 15 16 17 16 16 17 17 17 18 16 18 19 19 17 18 18 20 20 20 22 22 22 22 23 23 22 20 21 20 20 20 19 17 14 13
10 11 10 11 11 11 12 12 13 13 14 15 17 18 18 17 16 14 15 16 16 16 16 17 18 19 20 20 24 23 21 20 19 20 20 20 20 19 18 17 16 15 14 13
10 10 10 10 9 10 11 10 11 11 13 13 13 13 15 14 16 16 15 13 14 15 16 15 18 19 19 20 21 22 22 22 21 20 19 19 17 16 15 14 14 14 14 15
10 10 10 10 10 9 9 9 10 11 11 12 13 13 12 12 12 13 14 14 13 14 15 15 15 18 18 20 21 21 20 19 19 19 20 19 17 16 17 16 14 14 14 14
14 14 12 11 11 11 11 10 10 10 12 12 12 13 14 15 14 12 11 11 11 12 14 13 13 13 16 17 17 18 18 17 17 17 17 16 17 16 14 14 13 13 13 13
14 13 13 13 12 12 11 10 10 11 11 10 11 13 13 13 13 13 13 12 11 11 12 12 12 12 12 14 14 14 15 16 16 15 16 16 13 12 11 10 11 11 12 12
14 14 14 14 13 13 13 12 11 10 10 10 10 11 13 13 13 13 12 11 11 12 10 11 12 13 13 11 10 10 10 10 14 15 16 16 16 16 14 11 10 10 9 10
13 13 13 14 14 14 14 13 13 12 12 11 11 10 10 10 11 10 11 11 10 12 12 10 11 13 13 14 11 10 9 8 10 10 11 14 15 15 14 14 13 12 11 10
12 13 13 12 12 13 13 12 12 12 12 11 11 11 11 10 10 11 11 10 10 10 11 10 10 12 12 11 12 12 12 11 10 8 9 9 10 12 13 13 13 13 13 12
13 11 12 12 12 11 11 11 11 11 11 11 10 10 10 10 9 10 9 9 9 9 10 10 10 9 10 10 10 11 11 11 10 11 11 10 8 7 8 8 9 10 10 10

GFSNGP_925_temp_033.txt.gz
Temp
32 35 35 36 35 36 36 36 36 38 37 38 38 38 38 39 39 38 38 38 38 39 39 39 39 37 36 36 35 34 33 32 31 29 29 28 28 28 27 27 26 26 26 27
30 33 31 31 35 36 36 36 37 37 38 40 39 39 38 38 38 37 37 38 38 39 38 38 39 37 36 35 35 34 34 33 32 30 29 28 28 27 27 27 27 26 26 26
27 30 30 29 32 34 36 37 37 36 37 39 38 37 37 37 37 37 37 38 38 39 39 38 38 37 36 35 34 34 33 33 32 31 29 28 28 27 27 27 27 26 26 26
26 28 26 31 34 34 33 35 36 36 36 36 36 36 36 37 36 37 37 38 38 39 40 39 39 39 36 35 33 33 32 32 31 31 30 28 28 27 27 27 26 27 26 26
25 28 30 31 32 33 32 32 34 34 34 35 35 35 35 36 36 36 37 38 38 39 40 39 39 39 38 36 35 32 32 31 31 30 30 29 28 27 27 27 27 26 26 26
24 25 27 30 32 32 32 30 34 34 34 34 35 33 35 35 35 37 38 38 38 38 39 39 38 38 38 37 36 33 31 31 30 30 29 29 28 27 27 27 27 27 26 26
22 23 27 30 31 31 28 28 32 33 33 33 33 32 31 31 31 32 32 33 34 35 36 36 36 37 36 36 36 34 32 31 30 29 29 28 28 27 27 27 27 26 27 27
22 22 23 29 28 28 27 27 27 27 28 28 29 29 30 30 30 31 32 33 33 35 35 34 34 35 34 34 34 34 33 31 30 29 29 29 28 27 27 27 26 27 26 27
23 24 25 26 26 28 27 25 25 26 26 26 27 28 29 29 29 31 32 33 34 35 34 33 33 32 32 32 32 32 31 30 30 29 28 29 28 27 27 27 27 27 28 28
21 22 23 24 25 26 26 25 25 25 25 26 26 27 28 28 30 31 32 32 32 32 33 32 30 30 30 31 30 30 30 30 29 29 28 28 28 28 28 29 28 28 30 29
20 21 22 22 23 24 24 24 24 24 24 25 26 27 27 27 29 30 30 29 30 30 31 29 28 28 28 29 29 29 29 29 29 29 29 29 28 30 30 29 30 30 30 30
18 20 21 21 22 23 23 23 23 23 24 24 25 26 25 24 26 27 28 28 27 27 27 27 26 26 25 25 26 29 29 30 31 31 31 29 30 28 28 28 28 29 29 28
16 18 20 20 20 21 21 22 23 23 23 23 25 26 23 22 24 23 25 26 27 27 26 26 25 23 23 24 25 26 28 27 30 30 32 33 32 31 31 29 29 28 28 27
13 14 14 17 18 20 21 22 20 21 22 23 24 25 22 19 20 23 24 25 26 26 25 24 24 24 24 24 24 24 24 24 28 28 29 29 29 29 29 29 29 27 21 22
10 11 14 16 15 17 18 19 19 21 22 24 25 22 19 19 20 22 23 23 22 22 23 24 23 23 24 23 23 24 26 26 26 25 23 23 23 22 22 20 19 18 19 19
13 11 12 12 14 16 16 16 17 20 22 24 22 19 18 19 22 23 23 23 23 23 22 21 21 23 23 23 25 24 23 23 24 25 25 25 25 24 23 22 21 20 20 19
13 11 12 12 14 15 16 17 16 19 22 20 20 17 17 19 21 22 22 21 21 21 21 22 22 22 22 24 25 26 26 25 24 25 24 24 24 24 24 24 22 22 20 16
11 13 15 15 16 16 15 15 15 18 18 15 15 15 17 18 18 19 20 20 19 19 20 20 21 22 22 23 25 25 25 26 26 26 25 24 24 23 23 22 20 20 21 17
11 11 11 11 12 12 12 12 12 12 11 12 12 13 14 14 15 16 17 18 19 19 19 20 21 22 22 23 25 24 24 23 23 22 23 23 22 21 19 18 18 17 17 18
11 11 11 11 10 10 11 11 10 10 11 10 10 10 10 11 13 14 15 15 15 15 16 17 20 20 21 22 23 23 21 21 23 22 22 22 22 21 17 15 15 15 16 16
13 11 11 11 10 9 9 10 10 10 10 9 10 10 10 9 9 10 11 11 13 16 15 14 14 18 19 21 21 21 21 22 20 19 20 17 17 16 16 15 14 14 14 14
16 15 14 11 10 10 11 10 10 10 10 10 10 10 11 11 10 10 10 11 12 15 15 14 14 15 16 18 19 20 20 19 19 19 19 18 15 13 12 11 11 11 12 12
15 15 15 15 15 13 13 12 12 11 11 12 13 13 13 14 14 14 14 13 12 12 13 14 13 13 13 14 14 14 15 17 19 19 17 16 15 14 12 10 9 9 10 11
15 15 15 15 15 15 14 13 12 12 12 11 11 12 12 13 12 13 12 12 12 13 12 12 14 15 15 13 11 11 11 11 13 14 18 18 18 17 15 12 10 10 9 9
14 15 14 14 16 16 15 15 14 13 13 12 13 12 12 12 12 11 11 12 12 13 13 12 13 14 15 15 15 13 11 11 12 12 13 14 16 17 16 16 15 12 10 10
14 15 15 14 14 14 15 15 14 14 14 14 13 13 12 12 12 12 12 12 12 12 12 12 12 13 13 13 14 14 14 13 13 11 10 11 11 12 12 13 13 13 13 13
15 13 15 14 14 14 13 13 13 12 12 13 13 12 12 12 11 12 11 12 12 12 12 12 12 11 13 13 13 12 12 13 12 13 13 13 12 11 9 8 7 8 8 8

GFSNGP_925_temp_036.txt.gz
Temp
32 35 37 36 36 36 36 37 35 38 38 37 37 38 39 40 40 40 39 40 39 39 37 36 36 35 35 35 34 33 32 30 29 28 28 27 27 27 26 26 26 26 27 27
29 31 33 34 36 36 37 37 37 38 39 38 39 38 38 38 38 37 38 39 39 38 38 39 36 35 35 35 35 34 33 32 30 29 28 28 28 27 27 26 26 26 26 26
26 30 31 32 34 36 37 37 37 37 38 39 38 37 37 38 38 37 37 38 38 38 38 37 38 37 36 35 35 34 33 32 32 30 29 28 28 28 27 27 26 26 26 26
25 27 27 32 35 35 36 37 38 38 39 39 38 37 37 38 37 37 37 37 37 38 38 38 38 39 37 36 35 34 33 33 32 31 30 29 28 28 27 27 27 26 26 26
24 26 29 31 33 34 34 35 37 38 39 37 36 36 35 36 37 36 36 36 37 38 38 39 38 38 37 36 34 33 33 32 32 31 30 29 28 28 27 27 27 27 26 26
24 25 27 31 34 35 35 32 34 35 35 35 36 34 32 32 32 32 33 33 33 34 35 38 39 39 35 35 34 33 32 32 32 31 31 30 29 28 27 27 27 27 27 26
22 23 28 28 30 33 30 26 28 29 29 33 33 30 30 31 30 31 31 32 32 33 33 35 35 35 35 36 34 34 32 32 31 31 30 30 29 28 28 27 27 27 27 27
22 23 23 27 29 26 25 26 26 27 26 26 27 28 29 29 29 30 31 32 33 33 33 33 34 34 33 33 36 35 35 32 31 30 29 30 29 28 28 27 27 27 26 26
23 24 26 27 26 27 27 26 25 25 26 26 26 26 27 27 28 29 30 32 32 33 33 33 33 33 32 32 32 33 33 32 31 30 29 29 29 28 27 27 27 27 27 27
21 23 23 25 26 26 26 25 26 26 25 25 25 26 26 27 27 27 28 30 31 30 31 32 32 31 30 30 31 31 32 31 30 30 29 28 28 28 28 28 27 27 28 27
19 20 22 23 24 24 24 24 24 25 25 25 24 25 25 26 26 25 26 28 29 29 29 29 28 27 27 28 30 30 30 30 30 29 29 28 28 29 28 28 28 28 28 28
18 19 19 20 22 23 23 23 24 24 23 24 24 24 24 24 26 24 25 25 27 28 28 27 27 26 25 25 26 29 29 29 30 30 30 29 28 28 29 29 28 29 29 28
14 16 16 17 19 20 20 22 23 23 23 23 23 23 23 23 24 22 22 25 26 26 27 26 25 24 24 25 26 26 27 28 30 30 32 29 29 30 28 24 24 24 23 22
9 10 11 14 15 18 19 21 21 23 23 23 22 22 23 23 23 22 22 23 24 25 24 24 25 25 25 25 24 25 26 27 29 26 27 26 25 25 26 25 26 23 22 21
13 12 11 13 15 17 19 20 19 21 21 21 21 23 24 24 22 21 21 22 22 22 22 24 24 24 24 24 25 25 27 27 26 24 24 24 24 24 24 23 22 22 21 21
14 12 15 12 13 16 18 18 18 19 20 19 21 22 23 22 20 20 21 22 21 20 21 22 22 24 24 24 24 24 24 25 26 26 25 26 25 25 24 23 23 22 21 19
13 13 11 11 14 16 17 18 18 19 19 19 20 18 22 20 17 17 20 20 21 21 21 22 22 23 24 26 26 26 25 25 25 25 25 25 25 25 24 24 23 22 21 18
10 11 13 13 14 15 16 17 17 17 16 16 17 18 19 15 15 16 18 19 18 19 19 21 22 23 23 23 26 26 27 26 26 25 24 24 24 23 22 21 20 20 20 18
10 10 10 10 11 11 11 12 11 10 10 10 11 12 12 12 13 14 15 15 15 15 14 16 21 22 22 23 23 24 24 24 24 23 22 22 20 18 18 17 17 18 18 18
10 9 9 10 9 9 9 10 10 10 9 9 9 9 9 8 10 11 11 11 12 13 14 15 17 19 21 23 22 21 20 21 21 19 18 17 17 16 15 14 14 14 14 14
11 10 9 9 9 8 8 8 9 9 8 8 9 8 8 8 8 8 9 9 9 10 11 13 13 15 17 20 21 21 20 20 19 18 17 15 14 12 12 11 11 11 12 12
15 14 12 10 9 8 7 7 7 8 9 8 8 8 8 8 7 7 7 7 8 9 9 11 12 13 14 15 15 17 19 19 19 18 17 16 14 12 11 11 10 10 10 10
15 14 15 13 11 11 10 9 8 8 8 9 9 8 8 8 8 8 8 9 9 10 10 10 10 11 11 11 12 13 13 13 15 18 17 16 14 12 11 11 11 10 9 9
14 14 15 14 14 12 12 12 12 12 12 11 11 11 12 11 11 11 12 12 13 12 12 13 14 14 14 12 12 12 12 12 12 13 14 14 15 15 12 11 10 9 8 8
14 15 15 15 15 15 14 14 13 13 13 13 13 12 12 12 12 12 12 12 13 13 12 12 13 14 15 15 15 13 12 12 12 12 11 11 12 13 13 13 13 11 10 8
15 16 15 15 15 15 14 14 13 12 13 13 13 12 12 12 12 12 13 13 13 13 13 12 12 14 14 14 14 14 13 13 13 12 12 11 10 10 9 9 9 8 9 9
15 14 15 15 15 14 14 13 13 13 12 13 12 12 12 12 12 13 13 12 13 13 13 13 13 13 13 13 13 13 13 13 12 13 13 13 12 12 11 9 8 7 7 7